FW7441 Weather Reports


Display with metric or nautical units.
time (UTC)temp
F
wind
direction
speed
MPH
gust
MPH
rain 1hr
in
rain 24hr
in
rain mn
in
humidity
%
barometer
mb
20260901092455 74 266 0.0 0.0 0.00 0.00 0.00 99 1014.0
20260901091951 74 252 0.0 0.0 0.00 0.00 0.00 99 1013.6
20260901091446 73 234 0.0 0.0 0.00 0.00 0.00 99 1013.8
20260901090941 73 201 0.0 0.0 0.00 0.00 0.00 99 1013.9
20260901090440 74 205 0.0 0.0 0.00 0.00 0.00 99 1013.8
20260901085936 74 166 0.0 0.0 0.00 0.00 0.00 99 1013.8
20260901085432 74 223 0.0 0.0 0.00 0.00 0.00 99 1013.6
20260901084928 74 194 0.0 0.0 0.00 0.00 0.00 99 1013.8
20260901084424 74 200 0.0 1.0 0.00 0.00 0.00 99 1013.9
20260901083919 73 209 0.0 0.0 0.00 0.00 0.00 99 1013.9
20260901083414 73 209 0.0 0.0 0.00 0.00 0.00 99 1013.8
20260901082912 73 210 0.0 0.0 0.00 0.00 0.00 99 1013.7
20260901082407 74 218 0.0 0.0 0.00 0.00 0.00 99 1013.6
20260901081902 74 244 0.0 0.0 0.00 0.00 0.00 99 1013.7
20260901081357 74 233 0.0 0.0 0.00 0.00 0.00 99 1013.5
20260901080851 73 222 0.0 0.0 0.00 0.00 0.00 99 1013.7
20260901080346 74 222 0.0 0.0 0.00 0.00 0.00 99 1013.3
20260901075846 74 222 0.0 0.0 0.00 0.00 0.00 99 1013.9
20260901075341 74 222 0.0 0.0 0.00 0.00 0.00 99 1013.7
20260901074836 74 223 0.0 0.0 0.00 0.00 0.00 99 1013.7
20260901074330 74 202 0.0 0.0 0.00 0.00 0.00 99 1013.6
20260901073826 74 202 0.0 0.0 0.00 0.00 0.00 99 1013.6
20260901073321 74 243 0.0 0.0 0.00 0.00 0.00 99 1013.7
20260901072817 74 243 0.0 0.0 0.00 0.00 0.00 98 1013.8
20260901072311 74 244 0.0 0.0 0.00 0.00 0.00 98 1013.7
20260901071807 75 244 0.0 0.0 0.00 0.00 0.00 98 1013.8
20260901071305 75 243 0.0 0.0 0.00 0.00 0.00 98 1013.7
20260901070804 75 256 0.0 0.0 0.00 0.00 0.00 98 1013.7
20260901070300 75 236 0.0 0.0 0.00 0.00 0.00 98 1013.7
20260901065759 75 232 0.0 0.0 0.00 0.00 0.00 98 1013.7
20260901065254 75 207 0.0 0.0 0.00 0.00 0.00 98 1013.5
20260901064750 75 219 0.0 0.0 0.00 0.00 0.00 98 1013.7
20260901064246 75 201 0.0 0.0 0.00 0.00 0.00 98 1013.8
20260901063743 75 183 0.0 0.0 0.00 0.00 0.00 98 1013.7
20260901063239 75 231 0.0 0.0 0.00 0.00 0.00 98 1013.7
20260901062735 75 193 0.0 0.0 0.00 0.00 0.00 98 1013.8
20260901062231 75 232 0.0 0.0 0.00 0.00 0.00 98 1013.8
20260901061727 75 197 0.0 0.0 0.00 0.00 0.00 98 1013.8
20260901061226 75 286 0.0 1.0 0.00 0.00 0.00 98 1013.9
20260901060721 75 258 0.0 0.0 0.00 0.00 0.00 98 1013.7
20260901060217 75 227 0.0 0.0 0.00 0.00 0.00 98 1013.7
20260901055712 75 227 0.0 0.0 0.00 0.00 0.00 98 1013.9
20260901055209 75 227 0.0 0.0 0.00 0.00 0.00 98 1013.7
20260901054706 75 233 0.0 0.0 0.00 0.00 0.00 98 1013.9
20260901054202 75 233 0.0 0.0 0.00 0.00 0.00 97 1013.7
20260901053657 75 233 0.0 0.0 0.00 0.00 0.00 97 1013.8
20260901053153 75 235 0.0 0.0 0.00 0.00 0.00 97 1013.7
20260901052648 75 235 0.0 0.0 0.00 0.00 0.00 97 1013.8
20260901052143 75 238 0.0 0.0 0.00 0.00 0.00 97 1013.6
20260901051642 75 219 0.0 0.0 0.00 0.00 0.00 97 1013.7
20260901051142 75 232 0.0 0.0 0.00 0.00 0.00 97 1013.8
20260901050637 75 245 0.0 0.0 0.00 0.00 0.00 96 1013.8
20260901050132 76 243 0.0 0.0 0.00 0.00 0.00 96 1013.7
20260901045627 76 216 0.0 0.0 0.00 0.65 0.65 96 1014.1
20260901045122 76 216 0.0 0.0 0.00 0.65 0.65 96 1014.0
20260901044618 76 216 0.0 0.0 0.00 0.65 0.65 96 1013.9
20260901044114 76 213 0.0 0.0 0.00 0.65 0.65 96 1014.1
20260901043609 76 259 0.0 1.0 0.00 0.65 0.65 96 1013.9
20260901043104 76 213 0.0 0.0 0.00 0.65 0.65 96 1013.9
20260901042603 76 209 0.0 0.0 0.00 0.65 0.65 96 1013.9
20260901042059 76 209 0.0 0.0 0.00 0.65 0.65 95 1013.9
20260901041554 76 245 0.0 0.0 0.00 0.65 0.65 95 1013.9
20260901041054 76 188 0.0 0.0 0.00 0.65 0.65 95 1014.0
20260901040553 76 229 0.0 0.0 0.00 0.65 0.65 95 1013.9
20260901040048 76 233 1.0 2.0 0.00 0.65 0.65 95 1014.0
20260901035546 76 209 0.0 0.0 0.00 0.65 0.65 95 1014.0
20260901035045 76 241 0.0 0.0 0.00 0.65 0.65 95 1013.9
20260901034545 76 237 0.0 0.0 0.00 0.65 0.65 95 1014.1
20260901034045 76 242 1.0 2.0 0.00 0.65 0.65 95 1014.0
20260901033544 76 223 0.0 0.0 0.00 0.65 0.65 95 1014.1
20260901033039 77 231 0.0 0.0 0.00 0.65 0.65 95 1014.2
20260901032538 77 237 0.0 0.0 0.00 0.65 0.65 95 1014.1
20260901032033 77 225 0.0 0.0 0.00 0.65 0.65 95 1014.0
20260901031528 77 223 0.0 0.0 0.00 0.65 0.65 95 1014.1
20260901031024 77 208 0.0 0.0 0.00 0.65 0.65 95 1014.2
20260901030524 77 270 0.0 0.0 0.00 0.65 0.65 95 1014.0
20260901030019 77 271 0.0 0.0 0.00 0.65 0.65 94 1014.3
20260901025513 77 270 0.0 0.0 0.00 0.65 0.65 94 1014.2
20260901025013 77 286 1.0 1.0 0.00 0.65 0.65 94 1014.2
20260901024508 78 204 0.0 0.0 0.00 0.65 0.65 94 1014.2
20260901024006 78 207 0.0 0.0 0.00 0.65 0.65 93 1014.3
20260901023501 78 211 0.0 0.0 0.00 0.65 0.65 93 1014.1
20260901022955 78 210 0.0 0.0 0.00 0.65 0.65 93 1014.0
20260901022451 78 209 0.0 0.0 0.00 0.65 0.65 93 1014.1
20260901021946 78 206 0.0 0.0 0.00 0.65 0.65 92 1014.2
20260901021442 79 201 0.0 0.0 0.00 0.65 0.65 92 1014.1
20260901020937 79 237 2.0 2.0 0.00 0.65 0.65 91 1014.0
20260901020432 79 218 0.0 0.0 0.00 0.65 0.65 92 1014.1
20260901015931 79 198 2.0 2.0 0.00 0.65 0.65 92 1013.8
20260901015428 78 195 1.0 2.0 0.00 0.65 0.65 92 1013.6
20260901014926 78 199 0.0 1.0 0.00 0.65 0.65 92 1013.9
20260901014423 78 202 0.0 1.0 0.00 0.65 0.65 92 1014.1
20260901013919 79 219 0.0 0.0 0.00 0.65 0.65 92 1014.0
20260901013414 79 190 0.0 0.0 0.00 0.65 0.65 92 1014.0
20260901012910 79 192 0.0 0.0 0.00 0.65 0.65 92 1014.0
20260901012404 79 187 0.0 0.0 0.00 0.65 0.65 92 1014.0
20260901011900 79 197 0.0 0.0 0.00 0.65 0.65 92 1013.8
20260901011356 79 202 0.0 0.0 0.00 0.65 0.65 91 1013.8
20260901010854 79 200 0.0 1.0 0.00 0.65 0.65 91 1013.6
20260901010349 79 210 0.0 0.0 0.00 0.65 0.65 91 1013.7
20260901005847 79 242 0.0 1.0 0.00 0.65 0.65 91 1013.8
20260901005343 80 218 0.0 0.0 0.00 0.65 0.65 91 1013.7
20260901004839 80 193 0.0 1.0 0.00 0.65 0.65 90 1013.7
20260901004338 80 169 1.0 1.0 0.00 0.65 0.65 91 1013.6
20260901003832 80 238 1.0 1.0 0.00 0.65 0.65 91 1013.4
20260901003328 79 150 2.0 2.0 0.00 0.65 0.65 92 1013.4
20260901002826 79 183 0.0 1.0 0.00 0.65 0.65 92 1013.4
20260901002326 80 193 1.0 1.0 0.00 0.65 0.65 92 1013.3
20260901001826 80 183 1.0 2.0 0.00 0.65 0.65 92 1013.5
20260901001322 80 187 0.0 0.0 0.00 0.65 0.65 91 1013.5
20260901000817 80 190 0.0 0.0 0.00 0.65 0.65 92 1013.1
20260901000314 80 218 0.0 0.0 0.00 0.65 0.65 91 1013.4
20260831235810 80 231 1.0 1.0 0.00 0.65 0.65 91 1013.1
20260831235306 80 200 0.0 0.0 0.00 0.65 0.65 91 1013.4
20260831234801 80 200 0.0 0.0 0.00 0.65 0.65 91 1013.2
20260831234301 80 191 0.0 0.0 0.00 0.65 0.65 91 1013.2
20260831233756 80 208 0.0 1.0 0.00 0.65 0.65 91 1013.1
20260831233252 80 200 0.0 0.0 0.00 0.65 0.65 91 1013.4
20260831232746 81 207 0.0 1.0 0.00 0.65 0.65 91 1013.3
20260831232243 81 214 1.0 1.0 0.00 0.65 0.65 91 1013.6
20260831231739 81 147 1.0 2.0 0.00 0.65 0.65 90 1013.6
20260831231235 81 230 1.0 1.0 0.00 0.65 0.65 90 1013.5
20260831230730 81 219 2.0 2.0 0.00 0.65 0.65 90 1013.4
20260831230225 82 244 0.0 1.0 0.00 0.65 0.65 89 1013.5
20260831225724 82 187 0.0 0.0 0.00 0.65 0.65 89 1013.3
20260831225220 82 204 1.0 2.0 0.00 0.65 0.65 88 1013.1
20260831224714 82 246 2.0 2.0 0.00 0.65 0.65 88 1013.1
20260831224210 83 227 0.0 0.0 0.00 0.65 0.65 87 1013.2
20260831223705 83 239 2.0 2.0 0.00 0.65 0.65 88 1013.0
20260831223202 83 194 1.0 1.0 0.00 0.65 0.65 87 1013.2
20260831222657 83 138 3.0 5.0 0.00 0.65 0.65 88 1013.2
20260831222152 83 187 2.0 3.0 0.00 0.65 0.65 88 1013.1
20260831221647 83 249 2.0 2.0 0.00 0.65 0.65 89 1013.2
20260831221143 82 154 1.0 2.0 0.00 0.65 0.65 90 1013.1
20260831220632 82 241 2.0 2.0 0.00 0.65 0.65 91 1012.6
20260831220127 81 231 0.0 1.0 0.00 0.65 0.65 93 1012.8
20260831215623 80 266 1.0 1.0 0.00 0.65 0.65 95 1012.8
20260831215118 79 316 3.0 3.0 0.00 0.65 0.65 97 1012.8
20260831214615 78 220 2.0 2.0 0.00 0.65 0.65 98 1013.0
20260831214112 77 195 0.0 0.0 0.00 0.65 0.65 98 1012.9
20260831213608 77 185 3.0 6.0 0.00 0.65 0.65 98 1012.9
20260831213103 77 223 1.0 2.0 0.00 0.65 0.65 98 1013.1
20260831212559 77 237 1.0 1.0 0.00 0.65 0.65 98 1013.1
20260831212055 76 215 0.0 1.0 0.00 0.65 0.65 98 1013.0
20260831211554 76 165 2.0 2.0 0.00 0.65 0.65 98 1013.2
20260831211054 76 214 2.0 3.0 0.00 0.65 0.65 98 1012.8
20260831210549 76 170 5.0 6.0 0.00 0.65 0.65 98 1012.8
20260831210045 77 243 1.0 2.0 0.00 0.65 0.65 98 1012.5
20260831205539 76 225 1.0 3.0 0.00 0.65 0.65 98 1012.2
20260831205035 77 163 2.0 2.0 0.12 0.65 0.65 98 1011.8
20260831204530 76 159 0.0 0.0 0.17 0.65 0.65 98 1012.2
20260831204028 75 151 2.0 2.0 0.12 0.64 0.64 99 1012.3
20260831203528 75 199 4.0 6.0 0.42 0.62 0.62 98 1012.8
20260831203028 75 219 3.0 3.0 0.97 0.62 0.62 98 1012.4
20260831202521 75 158 6.0 8.0 1.21 0.56 0.56 98 1012.5
20260831202021 75 195 4.0 6.0 0.90 0.48 0.48 98 1012.9
20260831201520 76 240 1.0 2.0 0.19 0.36 0.36 96 1014.4
20260831201016 76 218 1.0 2.0 0.05 0.33 0.33 96 1014.3
20260831200511 76 201 1.0 1.0 0.05 0.33 0.33 96 1013.9
20260831200006 76 246 1.0 1.0 0.00 0.32 0.32 95 1014.4
20260831195502 77 253 1.0 1.0 0.00 0.32 0.32 95 1013.8
20260831195001 77 256 0.0 0.0 0.00 0.32 0.32 94 1013.5
20260831194457 77 282 1.0 2.0 0.00 0.32 0.32 93 1013.3
20260831193956 78 258 0.0 1.0 0.14 0.32 0.32 91 1013.2
20260831193452 79 215 1.0 2.0 0.14 0.32 0.32 88 1013.3
20260831192947 80 141 1.0 1.0 0.00 0.30 0.30 82 1013.0
20260831192442 80 165 2.0 2.0 0.00 0.30 0.30 80 1013.1
20260831191937 81 202 3.0 3.0 0.00 0.30 0.30 79 1013.3
20260831191433 81 195 6.0 7.0 0.00 0.30 0.30 77 1013.2
20260831190929 81 235 1.0 2.0 0.00 0.30 0.30 77 1013.4
20260831190424 81 222 0.0 1.0 0.00 0.30 0.30 77 1013.5
20260831185923 81 210 2.0 3.0 0.00 0.30 0.30 76 1013.5
20260831185419 82 197 2.0 2.0 0.00 0.30 0.30 74 1013.5
20260831184918 82 217 2.0 2.0 0.00 0.30 0.30 74 1013.6
20260831184413 83 121 4.0 7.0 0.00 0.30 0.30 73 1013.7
20260831183909 84 213 2.0 3.0 0.00 0.30 0.30 71 1013.4
20260831183408 84 200 2.0 3.0 0.00 0.30 0.30 71 1013.4
20260831182907 84 203 3.0 5.0 0.00 0.30 0.30 71 1013.5
20260831182403 84 243 2.0 3.0 0.00 0.30 0.30 71 1013.4
20260831181858 84 224 3.0 3.0 0.00 0.30 0.30 70 1013.3
20260831181353 85 189 3.0 7.0 0.00 0.30 0.30 69 1013.0
20260831180848 86 237 4.0 5.0 0.00 0.30 0.30 67 1013.1
20260831180342 86 198 3.0 8.0 0.00 0.30 0.30 69 1013.5
20260831175841 85 224 2.0 3.0 0.00 0.30 0.30 69 1013.4
20260831175338 85 201 2.0 2.0 0.00 0.30 0.30 70 1013.2
20260831174835 84 58 3.0 6.0 0.00 0.30 0.30 70 1013.3
20260831174330 84 227 4.0 7.0 0.00 0.30 0.30 70 1013.5
20260831173829 84 149 3.0 6.0 0.00 0.30 0.30 71 1013.4
20260831173328 84 229 1.0 2.0 0.00 0.30 0.30 72 1013.6
20260831172823 84 227 1.0 2.0 0.00 0.30 0.30 72 1013.7
20260831172319 83 169 3.0 8.0 0.00 0.30 0.30 71 1013.8
20260831171819 83 181 5.0 7.0 0.00 0.30 0.30 70 1013.9
20260831171315 83 188 0.0 1.0 0.00 0.30 0.30 73 1013.6
20260831170812 83 218 4.0 6.0 0.00 0.30 0.30 72 1014.0
20260831170308 83 236 3.0 6.0 0.00 0.30 0.30 72 1014.3
20260831165804 83 218 0.0 1.0 0.00 0.30 0.30 72 1014.0
20260831165300 82 111 5.0 8.0 0.00 0.30 0.30 70 1014.1
20260831164756 82 203 3.0 3.0 0.00 0.30 0.30 73 1014.0
20260831164252 82 205 4.0 8.0 0.00 0.30 0.30 73 1014.2
20260831163747 81 196 2.0 2.0 0.00 0.30 0.30 77 1014.5
20260831163243 80 126 2.0 2.0 0.00 0.30 0.30 76 1014.4
20260831162741 80 231 4.0 7.0 0.00 0.30 0.30 76 1014.5
20260831162236 79 74 1.0 2.0 0.00 0.30 0.30 79 1014.3
20260831161730 79 128 3.0 6.0 0.00 0.30 0.30 79 1014.4
20260831161227 79 203 1.0 2.0 0.00 0.30 0.30 81 1014.4
20260831160726 79 219 3.0 3.0 0.00 0.30 0.30 80 1014.3
20260831160221 78 105 4.0 7.0 0.00 0.30 0.30 80 1014.3
20260831155721 78 197 4.0 7.0 0.00 0.30 0.30 82 1014.6
20260831155216 76 189 2.0 2.0 0.00 0.30 0.30 85 1014.6
20260831154712 75 187 6.0 8.0 0.00 0.30 0.30 85 1014.4
20260831154209 76 142 2.0 5.0 0.00 0.30 0.30 84 1014.5
20260831153707 76 165 4.0 6.0 0.00 0.30 0.30 86 1014.3
20260831153203 75 132 2.0 3.0 0.00 0.30 0.30 87 1014.5
20260831152659 75 149 2.0 3.0 0.00 0.30 0.30 89 1014.4
20260831152155 74 219 1.0 2.0 0.00 0.30 0.30 90 1014.7
20260831151654 74 218 5.0 7.0 0.00 0.30 0.30 91 1014.5
20260831151148 73 188 3.0 6.0 0.00 0.30 0.30 91 1014.8
20260831150644 73 133 2.0 3.0 0.00 0.30 0.30 92 1014.6
20260831150139 73 188 3.0 3.0 0.00 0.30 0.30 93 1014.6
20260831145638 73 224 1.0 1.0 0.00 0.30 0.30 93 1014.7
20260831145135 73 205 3.0 3.0 0.00 0.30 0.30 94 1014.7
20260831144631 73 158 1.0 1.0 0.00 0.30 0.30 94 1014.6
20260831144126 73 186 2.0 2.0 0.00 0.30 0.30 94 1014.7
20260831143625 72 102 2.0 3.0 0.00 0.30 0.30 94 1014.8
20260831143121 72 183 0.0 1.0 0.00 0.30 0.30 94 1014.8
20260831142618 72 160 1.0 2.0 0.00 0.30 0.30 94 1014.7
20260831142113 72 186 4.0 6.0 0.00 0.30 0.30 94 1014.5
20260831141611 72 186 3.0 5.0 0.00 0.30 0.30 94 1014.8
20260831141107 72 120 2.0 5.0 0.00 0.30 0.30 94 1014.7
20260831140601 72 206 1.0 2.0 0.00 0.30 0.30 94 1014.7
20260831140055 72 158 2.0 2.0 0.00 0.30 0.30 95 1014.5
20260831135552 72 216 3.0 3.0 0.00 0.30 0.30 95 1014.6
20260831135048 71 145 3.0 5.0 0.00 0.30 0.30 96 1014.7
20260831134544 70 149 2.0 5.0 0.00 0.30 0.30 97 1014.6
20260831134038 70 162 2.0 2.0 0.00 0.30 0.30 97 1014.9
20260831133538 70 167 4.0 6.0 0.00 0.30 0.30 98 1014.6
20260831133033 70 181 2.0 3.0 0.00 0.30 0.30 98 1015.0
20260831132530 69 185 0.0 1.0 0.00 0.30 0.30 98 1015.0
20260831132029 69 131 1.0 2.0 0.00 0.30 0.30 98 1015.1
20260831131528 70 152 3.0 3.0 0.00 0.30 0.30 98 1015.1
20260831131025 70 177 0.0 0.0 0.00 0.30 0.30 98 1015.4
20260831130520 69 153 2.0 3.0 0.00 0.30 0.30 98 1015.0
20260831130016 69 235 0.0 0.0 0.00 0.30 0.30 99 1015.1
20260831125514 69 148 2.0 2.0 0.00 0.30 0.30 99 1015.3
20260831125010 69 208 0.0 0.0 0.05 0.30 0.30 99 1015.0
20260831124507 69 165 2.0 3.0 0.12 0.30 0.30 99 1014.8
20260831124002 69 137 2.0 3.0 0.31 0.29 0.29 99 1014.8
20260831123500 69 183 0.0 0.0 0.24 0.28 0.28 99 1014.8
20260831122955 69 252 0.0 1.0 0.00 0.24 0.24 99 1015.0
20260831122451 69 196 0.0 0.0 0.00 0.24 0.24 99 1014.8
20260831121946 69 209 0.0 0.0 0.00 0.24 0.24 99 1014.6
20260831121441 69 178 0.0 0.0 0.00 0.24 0.24 99 1014.5
20260831120937 69 208 0.0 0.0 0.05 0.24 0.24 99 1014.5
20260831120431 69 170 1.0 1.0 0.05 0.24 0.24 99 1014.5
20260831115931 69 204 1.0 1.0 0.00 0.23 0.23 99 1014.5
20260831115428 68 204 0.0 1.0 0.00 0.23 0.23 99 1014.7
20260831114927 68 200 0.0 1.0 0.12 0.23 0.23 99 1014.5
20260831114426 69 144 1.0 1.0 0.12 0.23 0.23 98 1015.0
20260831113922 69 167 0.0 1.0 0.12 0.21 0.21 98 1014.9
20260831113416 69 269 0.0 0.0 0.42 0.21 0.21 97 1014.8
20260831112911 69 304 0.0 0.0 0.42 0.19 0.19 97 1014.8
20260831112411 70 299 0.0 0.0 0.54 0.14 0.14 96 1015.1
20260831111906 70 134 0.0 1.0 0.42 0.12 0.12 94 1015.2
20260831111402 71 244 1.0 1.0 0.31 0.05 0.05 91 1015.1
20260831110858 72 146 1.0 2.0 0.31 0.05 0.05 90 1015.0
20260831110353 73 241 0.0 0.0 0.07 0.01 0.01 87 1015.1
20260831105851 73 260 0.0 0.0 0.00 0.00 0.00 86 1014.6
20260831105347 73 302 3.0 5.0 0.00 0.00 0.00 84 1014.5
20260831104842 73 273 0.0 0.0 0.00 0.00 0.00 85 1014.6
20260831104338 73 265 0.0 1.0 0.00 0.00 0.00 84 1014.0
20260831103838 73 199 0.0 0.0 0.00 0.00 0.00 83 1014.0
20260831103334 73 205 0.0 0.0 0.00 0.00 0.00 83 1013.7
20260831102828 73 170 1.0 1.0 0.00 0.00 0.00 83 1013.7
20260831102323 73 188 1.0 1.0 0.00 0.00 0.00 83 1013.7
20260831101819 73 206 1.0 2.0 0.00 0.00 0.00 83 1013.9
20260831101314 73 214 1.0 1.0 0.00 0.00 0.00 84 1013.6
20260831100810 73 213 0.0 0.0 0.00 0.00 0.00 85 1013.6
20260831100306 73 256 2.0 2.0 0.00 0.00 0.00 85 1013.7
20260831095805 73 193 1.0 1.0 0.00 0.00 0.00 85 1013.9
20260831095254 73 164 0.0 1.0 0.00 0.00 0.00 85 1013.6
20260831094749 73 236 1.0 2.0 0.00 0.00 0.00 86 1013.8
20260831094244 72 173 2.0 3.0 0.00 0.00 0.00 87 1013.8
20260831093740 72 188 3.0 3.0 0.00 0.00 0.00 88 1013.7
20260831093235 72 178 2.0 2.0 0.00 0.00 0.00 90 1013.7
20260831092732 71 167 2.0 2.0 0.00 0.00 0.00 92 1013.6